owner,sensor,date,latitude,longitude,sea_surface_height_above_sea_level,qcFlag 
TCOON,ioos:station:TCOON:005:1,2017-01-01T00:18:00Z,27.6346,-97.2370,1.165,1111122 
TCOON,ioos:station:TCOON:005:1,2017-01-01T01:18:00Z,27.6346,-97.2370,1.183,1111122 
TCOON,ioos:station:TCOON:005:1,2017-01-01T02:18:00Z,27.6346,-97.2370,1.199,1111122 
TCOON,ioos:station:TCOON:005:1,2017-01-01T03:18:00Z,27.6346,-97.2370,1.213,1111122 
TCOON,ioos:station:TCOON:005:1,2017-01-01T04:30:00Z,27.6346,-97.2370,1.224,1111122 
TCOON,ioos:station:TCOON:005:1,2017-01-01T05:24:00Z,27.6346,-97.2370,1.23,1111122 
TCOON,ioos:station:TCOON:005:1,2017-01-01T06:18:00Z,27.6346,-97.2370,1.235,1111122 
TCOON,ioos:station:TCOON:005:1,2017-01-01T07:18:00Z,27.6346,-97.2370,1.238,1111122 
TCOON,ioos:station:TCOON:005:1,2017-01-01T08:18:00Z,27.6346,-97.2370,1.242,1111122 
TCOON,ioos:station:TCOON:005:1,2017-01-01T09:24:00Z,27.6346,-97.2370,1.239,1111122 
TCOON,ioos:station:TCOON:005:1,2017-01-01T10:18:00Z,27.6346,-97.2370,1.234,1111122 
TCOON,ioos:station:TCOON:005:1,2017-01-01T11:18:00Z,27.6346,-97.2370,1.227,1111122 
TCOON,ioos:station:TCOON:005:1,2017-01-01T12:18:00Z,27.6346,-97.2370,1.212,1111122 
TCOON,ioos:station:TCOON:005:1,2017-01-01T13:18:00Z,27.6346,-97.2370,1.194,1111122 
TCOON,ioos:station:TCOON:005:1,2017-01-01T14:18:00Z,27.6346,-97.2370,1.133,1111122 
TCOON,ioos:station:TCOON:005:1,2017-01-01T15:18:00Z,27.6346,-97.2370,1.147,1111122 
TCOON,ioos:station:TCOON:005:1,2017-01-01T16:18:00Z,27.6346,-97.2370,1.147,1111122 
TCOON,ioos:station:TCOON:005:1,2017-01-01T17:18:00Z,27.6346,-97.2370,1.141,1111122 
TCOON,ioos:station:TCOON:005:1,2017-01-01T18:24:00Z,27.6346,-97.2370,1.131,1111122 
TCOON,ioos:station:TCOON:005:1,2017-01-01T19:18:00Z,27.6346,-97.2370,1.119,1111122 
TCOON,ioos:station:TCOON:005:1,2017-01-01T20:18:00Z,27.6346,-97.2370,1.109,1111122 
TCOON,ioos:station:TCOON:005:1,2017-01-01T21:18:00Z,27.6346,-97.2370,1.11,1111122 
TCOON,ioos:station:TCOON:005:1,2017-01-01T22:18:00Z,27.6346,-97.2370,1.114,1111122 
TCOON,ioos:station:TCOON:005:1,2017-01-02T00:18:00Z,27.6346,-97.2370,1.123,1111122 
TCOON,ioos:station:TCOON:005:1,2017-01-02T01:18:00Z,27.6346,-97.2370,1.137,1111122 
TCOON,ioos:station:TCOON:005:1,2017-01-02T02:18:00Z,27.6346,-97.2370,1.153,1111122 
TCOON,ioos:station:TCOON:005:1,2017-01-02T03:18:00Z,27.6346,-97.2370,1.175,1111122 
TCOON,ioos:station:TCOON:005:1,2017-01-02T04:18:00Z,27.6346,-97.2370,1.186,1111122 
TCOON,ioos:station:TCOON:005:1,2017-01-02T05:18:00Z,27.6346,-97.2370,1.203,1111122 
TCOON,ioos:station:TCOON:005:1,2017-01-02T06:18:00Z,27.6346,-97.2370,1.212,1111122 
TCOON,ioos:station:TCOON:005:1,2017-01-02T07:18:00Z,27.6346,-97.2370,1.228,1111122 
TCOON,ioos:station:TCOON:005:1,2017-01-02T08:18:00Z,27.6346,-97.2370,1.225,1111122 
TCOON,ioos:station:TCOON:005:1,2017-01-02T09:18:00Z,27.6346,-97.2370,1.226,1111122 
TCOON,ioos:station:TCOON:005:1,2017-01-02T10:18:00Z,27.6346,-97.2370,1.222,1111122 
TCOON,ioos:station:TCOON:005:1,2017-01-02T11:18:00Z,27.6346,-97.2370,1.227,1111122 
TCOON,ioos:station:TCOON:005:1,2017-01-02T12:18:00Z,27.6346,-97.2370,1.215,1111122 
TCOON,ioos:station:TCOON:005:1,2017-01-02T13:24:00Z,27.6346,-97.2370,1.203,1111122 
TCOON,ioos:station:TCOON:005:1,2017-01-02T14:24:00Z,27.6346,-97.2370,1.199,1111122 
TCOON,ioos:station:TCOON:005:1,2017-01-02T15:18:00Z,27.6346,-97.2370,1.184,1111122 
TCOON,ioos:station:TCOON:005:1,2017-01-02T16:18:00Z,27.6346,-97.2370,1.164,1111122 
TCOON,ioos:station:TCOON:005:1,2017-01-02T17:18:00Z,27.6346,-97.2370,1.142,1111122 
TCOON,ioos:station:TCOON:005:1,2017-01-02T18:18:00Z,27.6346,-97.2370,1.113,1111122 
TCOON,ioos:station:TCOON:005:1,2017-01-02T19:18:00Z,27.6346,-97.2370,1.096,1111122 
TCOON,ioos:station:TCOON:005:1,2017-01-02T20:18:00Z,27.6346,-97.2370,1.075,1111122 
TCOON,ioos:station:TCOON:005:1,2017-01-02T21:18:00Z,27.6346,-97.2370,1.069,1111122 
TCOON,ioos:station:TCOON:005:1,2017-01-02T22:18:00Z,27.6346,-97.2370,1.058,1111122 
TCOON,ioos:station:TCOON:005:1,2017-01-02T23:18:00Z,27.6346,-97.2370,1.052,1111122 
TCOON,ioos:station:TCOON:005:1,2017-01-03T00:18:00Z,27.6346,-97.2370,1.057,1111122 
TCOON,ioos:station:TCOON:005:1,2017-01-03T01:18:00Z,27.6346,-97.2370,1.057,1111122 
TCOON,ioos:station:TCOON:005:1,2017-01-03T02:18:00Z,27.6346,-97.2370,1.064,1111122 
TCOON,ioos:station:TCOON:005:1,2017-01-03T03:18:00Z,27.6346,-97.2370,1.077,1111122 
TCOON,ioos:station:TCOON:005:1,2017-01-03T04:18:00Z,27.6346,-97.2370,1.09,1111122 
TCOON,ioos:station:TCOON:005:1,2017-01-03T05:18:00Z,27.6346,-97.2370,1.108,1111122 
TCOON,ioos:station:TCOON:005:1,2017-01-03T06:24:00Z,27.6346,-97.2370,1.113,1111122 
TCOON,ioos:station:TCOON:005:1,2017-01-03T07:24:00Z,27.6346,-97.2370,1.12,1111122 
TCOON,ioos:station:TCOON:005:1,2017-01-03T08:18:00Z,27.6346,-97.2370,1.123,1111122 
TCOON,ioos:station:TCOON:005:1,2017-01-03T09:18:00Z,27.6346,-97.2370,1.128,1111122 
TCOON,ioos:station:TCOON:005:1,2017-01-03T10:18:00Z,27.6346,-97.2370,1.133,1111122 
TCOON,ioos:station:TCOON:005:1,2017-01-03T11:18:00Z,27.6346,-97.2370,1.135,1111122 
TCOON,ioos:station:TCOON:005:1,2017-01-03T12:18:00Z,27.6346,-97.2370,1.125,1111122 
TCOON,ioos:station:TCOON:005:1,2017-01-03T13:18:00Z,27.6346,-97.2370,1.118,1111122 
TCOON,ioos:station:TCOON:005:1,2017-01-03T14:18:00Z,27.6346,-97.2370,1.118,1111122 
TCOON,ioos:station:TCOON:005:1,2017-01-03T15:18:00Z,27.6346,-97.2370,1.109,1111122 
TCOON,ioos:station:TCOON:005:1,2017-01-03T16:18:00Z,27.6346,-97.2370,1.09,1111122 
TCOON,ioos:station:TCOON:005:1,2017-01-03T17:18:00Z,27.6346,-97.2370,1.06,1111122 
TCOON,ioos:station:TCOON:005:1,2017-01-03T18:18:00Z,27.6346,-97.2370,1.068,1111122 
TCOON,ioos:station:TCOON:005:1,2017-01-03T19:18:00Z,27.6346,-97.2370,1.05,1111122 
TCOON,ioos:station:TCOON:005:1,2017-01-03T20:18:00Z,27.6346,-97.2370,1.044,1111122 
TCOON,ioos:station:TCOON:005:1,2017-01-03T21:18:00Z,27.6346,-97.2370,1.031,1111122 
TCOON,ioos:station:TCOON:005:1,2017-01-03T22:18:00Z,27.6346,-97.2370,1.04,1111122 
TCOON,ioos:station:TCOON:005:1,2017-01-03T23:18:00Z,27.6346,-97.2370,1.046,1111122 
TCOON,ioos:station:TCOON:005:1,2017-01-04T00:18:00Z,27.6346,-97.2370,1.049,1111122 
TCOON,ioos:station:TCOON:005:1,2017-01-04T01:18:00Z,27.6346,-97.2370,1.053,1111122 
TCOON,ioos:station:TCOON:005:1,2017-01-04T02:18:00Z,27.6346,-97.2370,1.062,1111122 
TCOON,ioos:station:TCOON:005:1,2017-01-04T03:18:00Z,27.6346,-97.2370,1.075,1111122 
TCOON,ioos:station:TCOON:005:1,2017-01-04T05:24:00Z,27.6346,-97.2370,1.107,1111122 
TCOON,ioos:station:TCOON:005:1,2017-01-04T06:18:00Z,27.6346,-97.2370,1.13,1111122 
TCOON,ioos:station:TCOON:005:1,2017-01-04T07:18:00Z,27.6346,-97.2370,1.13,1111122 
TCOON,ioos:station:TCOON:005:1,2017-01-04T08:18:00Z,27.6346,-97.2370,1.14,1111122 
TCOON,ioos:station:TCOON:005:1,2017-01-04T09:24:00Z,27.6346,-97.2370,1.157,1111122 
TCOON,ioos:station:TCOON:005:1,2017-01-04T10:18:00Z,27.6346,-97.2370,1.159,1111122 
TCOON,ioos:station:TCOON:005:1,2017-01-04T11:18:00Z,27.6346,-97.2370,1.154,1111122 
TCOON,ioos:station:TCOON:005:1,2017-01-04T12:18:00Z,27.6346,-97.2370,1.155,1111122 
TCOON,ioos:station:TCOON:005:1,2017-01-04T13:18:00Z,27.6346,-97.2370,1.149,1111122 
TCOON,ioos:station:TCOON:005:1,2017-01-04T14:18:00Z,27.6346,-97.2370,1.15,1111122 
TCOON,ioos:station:TCOON:005:1,2017-01-04T15:18:00Z,27.6346,-97.2370,1.144,1111122 
TCOON,ioos:station:TCOON:005:1,2017-01-04T16:18:00Z,27.6346,-97.2370,1.129,1111122 
TCOON,ioos:station:TCOON:005:1,2017-01-04T17:18:00Z,27.6346,-97.2370,1.118,1111122 
TCOON,ioos:station:TCOON:005:1,2017-01-04T18:24:00Z,27.6346,-97.2370,1.109,1111122 
TCOON,ioos:station:TCOON:005:1,2017-01-04T19:18:00Z,27.6346,-97.2370,1.103,1111122 
TCOON,ioos:station:TCOON:005:1,2017-01-04T20:18:00Z,27.6346,-97.2370,1.102,1111122 
TCOON,ioos:station:TCOON:005:1,2017-01-04T21:18:00Z,27.6346,-97.2370,1.085,1111122 
TCOON,ioos:station:TCOON:005:1,2017-01-04T22:18:00Z,27.6346,-97.2370,1.073,1111122 
TCOON,ioos:station:TCOON:005:1,2017-01-04T23:18:00Z,27.6346,-97.2370,1.068,1111122 
TCOON,ioos:station:TCOON:005:1,2017-01-05T00:18:00Z,27.6346,-97.2370,1.061,1111122 
TCOON,ioos:station:TCOON:005:1,2017-01-05T01:18:00Z,27.6346,-97.2370,1.065,1111122 
TCOON,ioos:station:TCOON:005:1,2017-01-05T02:18:00Z,27.6346,-97.2370,1.085,1111122 
TCOON,ioos:station:TCOON:005:1,2017-01-05T03:24:00Z,27.6346,-97.2370,1.098,1111122 
TCOON,ioos:station:TCOON:005:1,2017-01-05T04:18:00Z,27.6346,-97.2370,1.106,1111122 
TCOON,ioos:station:TCOON:005:1,2017-01-05T05:18:00Z,27.6346,-97.2370,1.112,1111122 
TCOON,ioos:station:TCOON:005:1,2017-01-05T06:18:00Z,27.6346,-97.2370,1.117,1111122 
TCOON,ioos:station:TCOON:005:1,2017-01-05T07:18:00Z,27.6346,-97.2370,1.121,1111122 
TCOON,ioos:station:TCOON:005:1,2017-01-05T08:18:00Z,27.6346,-97.2370,1.125,1111122 
TCOON,ioos:station:TCOON:005:1,2017-01-05T09:18:00Z,27.6346,-97.2370,1.132,1111122 
TCOON,ioos:station:TCOON:005:1,2017-01-05T10:18:00Z,27.6346,-97.2370,1.123,1111122 
TCOON,ioos:station:TCOON:005:1,2017-01-05T11:18:00Z,27.6346,-97.2370,1.126,1111122 
TCOON,ioos:station:TCOON:005:1,2017-01-05T12:24:00Z,27.6346,-97.2370,1.117,1111122 
TCOON,ioos:station:TCOON:005:1,2017-01-05T13:18:00Z,27.6346,-97.2370,1.104,1111122 
TCOON,ioos:station:TCOON:005:1,2017-01-05T14:18:00Z,27.6346,-97.2370,1.106,1111122 
TCOON,ioos:station:TCOON:005:1,2017-01-05T15:18:00Z,27.6346,-97.2370,1.102,1111122 
TCOON,ioos:station:TCOON:005:1,2017-01-05T16:18:00Z,27.6346,-97.2370,1.099,1111122 
TCOON,ioos:station:TCOON:005:1,2017-01-05T17:18:00Z,27.6346,-97.2370,1.096,1111122 
TCOON,ioos:station:TCOON:005:1,2017-01-05T18:18:00Z,27.6346,-97.2370,1.089,1111122 
TCOON,ioos:station:TCOON:005:1,2017-01-05T19:18:00Z,27.6346,-97.2370,1.099,1111122 
TCOON,ioos:station:TCOON:005:1,2017-01-05T20:24:00Z,27.6346,-97.2370,1.105,1111122 
TCOON,ioos:station:TCOON:005:1,2017-01-05T21:18:00Z,27.6346,-97.2370,1.099,1111122 
TCOON,ioos:station:TCOON:005:1,2017-01-05T22:18:00Z,27.6346,-97.2370,1.099,1111122 
TCOON,ioos:station:TCOON:005:1,2017-01-05T23:18:00Z,27.6346,-97.2370,1.099,1111122 
TCOON,ioos:station:TCOON:005:1,2017-01-06T00:18:00Z,27.6346,-97.2370,1.101,1111122 
TCOON,ioos:station:TCOON:005:1,2017-01-06T01:18:00Z,27.6346,-97.2370,1.103,1111122 
TCOON,ioos:station:TCOON:005:1,2017-01-06T02:18:00Z,27.6346,-97.2370,1.117,1111122 
TCOON,ioos:station:TCOON:005:1,2017-01-06T03:18:00Z,27.6346,-97.2370,1.129,1111122 
TCOON,ioos:station:TCOON:005:1,2017-01-06T04:18:00Z,27.6346,-97.2370,1.144,1111122 
TCOON,ioos:station:TCOON:005:1,2017-01-06T05:24:00Z,27.6346,-97.2370,1.162,1111122 
TCOON,ioos:station:TCOON:005:1,2017-01-06T06:18:00Z,27.6346,-97.2370,1.185,1111122 
TCOON,ioos:station:TCOON:005:1,2017-01-06T07:18:00Z,27.6346,-97.2370,1.201,1111122 
TCOON,ioos:station:TCOON:005:1,2017-01-06T08:18:00Z,27.6346,-97.2370,1.213,1111122 
TCOON,ioos:station:TCOON:005:1,2017-01-06T09:18:00Z,27.6346,-97.2370,1.22,1111122 
TCOON,ioos:station:TCOON:005:1,2017-01-06T10:24:00Z,27.6346,-97.2370,1.225,1111122 
TCOON,ioos:station:TCOON:005:1,2017-01-06T11:18:00Z,27.6346,-97.2370,1.217,1111122 
TCOON,ioos:station:TCOON:005:1,2017-01-06T12:18:00Z,27.6346,-97.2370,1.208,1111122 
TCOON,ioos:station:TCOON:005:1,2017-01-06T13:18:00Z,27.6346,-97.2370,1.204,1111122 
TCOON,ioos:station:TCOON:005:1,2017-01-06T14:24:00Z,27.6346,-97.2370,1.212,1111122 
TCOON,ioos:station:TCOON:005:1,2017-01-06T15:18:00Z,27.6346,-97.2370,1.188,1111122 
TCOON,ioos:station:TCOON:005:1,2017-01-06T16:18:00Z,27.6346,-97.2370,1.196,1111122 
TCOON,ioos:station:TCOON:005:1,2017-01-06T17:18:00Z,27.6346,-97.2370,1.205,1111122 
TCOON,ioos:station:TCOON:005:1,2017-01-06T18:18:00Z,27.6346,-97.2370,1.213,1111122 
TCOON,ioos:station:TCOON:005:1,2017-01-06T19:24:00Z,27.6346,-97.2370,1.222,1111122 
TCOON,ioos:station:TCOON:005:1,2017-01-06T20:18:00Z,27.6346,-97.2370,1.216,1111122 
TCOON,ioos:station:TCOON:005:1,2017-01-06T21:18:00Z,27.6346,-97.2370,1.22,1111122 
TCOON,ioos:station:TCOON:005:1,2017-01-06T22:18:00Z,27.6346,-97.2370,1.229,1111122 
TCOON,ioos:station:TCOON:005:1,2017-01-07T00:18:00Z,27.6346,-97.2370,1.267,1111122 
TCOON,ioos:station:TCOON:005:1,2017-01-07T01:18:00Z,27.6346,-97.2370,1.279,1111122 
TCOON,ioos:station:TCOON:005:1,2017-01-07T02:18:00Z,27.6346,-97.2370,1.284,1111122 
TCOON,ioos:station:TCOON:005:1,2017-01-07T03:18:00Z,27.6346,-97.2370,1.275,1111122 
TCOON,ioos:station:TCOON:005:1,2017-01-07T04:18:00Z,27.6346,-97.2370,1.286,1111122 
TCOON,ioos:station:TCOON:005:1,2017-01-07T05:18:00Z,27.6346,-97.2370,1.283,1111122 
TCOON,ioos:station:TCOON:005:1,2017-01-07T06:18:00Z,27.6346,-97.2370,1.283,1111122 
TCOON,ioos:station:TCOON:005:1,2017-01-07T07:18:00Z,27.6346,-97.2370,1.279,1111122 
TCOON,ioos:station:TCOON:005:1,2017-01-07T08:18:00Z,27.6346,-97.2370,1.272,1111122 
TCOON,ioos:station:TCOON:005:1,2017-01-07T09:24:00Z,27.6346,-97.2370,1.272,1111122 
TCOON,ioos:station:TCOON:005:1,2017-01-07T10:18:00Z,27.6346,-97.2370,1.263,1111122 
TCOON,ioos:station:TCOON:005:1,2017-01-07T11:18:00Z,27.6346,-97.2370,1.255,1111122 
TCOON,ioos:station:TCOON:005:1,2017-01-07T12:18:00Z,27.6346,-97.2370,1.238,1111122 
TCOON,ioos:station:TCOON:005:1,2017-01-07T13:18:00Z,27.6346,-97.2370,1.204,1111122 
TCOON,ioos:station:TCOON:005:1,2017-01-07T14:18:00Z,27.6346,-97.2370,1.186,1111122 
TCOON,ioos:station:TCOON:005:1,2017-01-07T15:18:00Z,27.6346,-97.2370,1.158,1111122 
TCOON,ioos:station:TCOON:005:1,2017-01-07T16:18:00Z,27.6346,-97.2370,1.108,1111122 
TCOON,ioos:station:TCOON:005:1,2017-01-07T17:18:00Z,27.6346,-97.2370,1.078,1111122 
TCOON,ioos:station:TCOON:005:1,2017-01-07T18:18:00Z,27.6346,-97.2370,1.048,1111122 
TCOON,ioos:station:TCOON:005:1,2017-01-07T19:18:00Z,27.6346,-97.2370,1.035,1111122 
TCOON,ioos:station:TCOON:005:1,2017-01-07T20:18:00Z,27.6346,-97.2370,1.037,1111122 
TCOON,ioos:station:TCOON:005:1,2017-01-07T21:18:00Z,27.6346,-97.2370,1.035,1111122 
TCOON,ioos:station:TCOON:005:1,2017-01-07T22:18:00Z,27.6346,-97.2370,1.035,1111122 
TCOON,ioos:station:TCOON:005:1,2017-01-07T23:18:00Z,27.6346,-97.2370,1.029,1111122 
TCOON,ioos:station:TCOON:005:1,2017-01-08T00:18:00Z,27.6346,-97.2370,1.025,1111122 
TCOON,ioos:station:TCOON:005:1,2017-01-08T01:18:00Z,27.6346,-97.2370,1.025,1111122 
TCOON,ioos:station:TCOON:005:1,2017-01-08T02:18:00Z,27.6346,-97.2370,1.02,1111122 
TCOON,ioos:station:TCOON:005:1,2017-01-08T03:18:00Z,27.6346,-97.2370,1.019,1111122 
TCOON,ioos:station:TCOON:005:1,2017-01-08T04:18:00Z,27.6346,-97.2370,1.019,1111122 
TCOON,ioos:station:TCOON:005:1,2017-01-08T05:18:00Z,27.6346,-97.2370,1.014,1111122 
TCOON,ioos:station:TCOON:005:1,2017-01-08T06:18:00Z,27.6346,-97.2370,1.01,1111122 
TCOON,ioos:station:TCOON:005:1,2017-01-08T07:18:00Z,27.6346,-97.2370,1.004,1111122 
TCOON,ioos:station:TCOON:005:1,2017-01-08T08:18:00Z,27.6346,-97.2370,0.996,1111122 
TCOON,ioos:station:TCOON:005:1,2017-01-08T09:18:00Z,27.6346,-97.2370,0.986,1111122 
TCOON,ioos:station:TCOON:005:1,2017-01-08T10:18:00Z,27.6346,-97.2370,0.972,1111122 
TCOON,ioos:station:TCOON:005:1,2017-01-08T11:18:00Z,27.6346,-97.2370,0.961,1111122 
TCOON,ioos:station:TCOON:005:1,2017-01-08T13:54:00Z,27.6346,-97.2370,0.937,1111122 
TCOON,ioos:station:TCOON:005:1,2017-01-08T14:18:00Z,27.6346,-97.2370,0.938,1111122 
TCOON,ioos:station:TCOON:005:1,2017-01-08T15:18:00Z,27.6346,-97.2370,0.921,1111122 
TCOON,ioos:station:TCOON:005:1,2017-01-08T16:18:00Z,27.6346,-97.2370,0.911,1111122 
TCOON,ioos:station:TCOON:005:1,2017-01-08T17:18:00Z,27.6346,-97.2370,0.89,1111122 
TCOON,ioos:station:TCOON:005:1,2017-01-08T18:18:00Z,27.6346,-97.2370,0.916,1111122 
TCOON,ioos:station:TCOON:005:1,2017-01-08T19:18:00Z,27.6346,-97.2370,0.933,1111122 
TCOON,ioos:station:TCOON:005:1,2017-01-08T20:18:00Z,27.6346,-97.2370,0.951,1111122 
TCOON,ioos:station:TCOON:005:1,2017-01-08T21:18:00Z,27.6346,-97.2370,0.975,1111122 
TCOON,ioos:station:TCOON:005:1,2017-01-08T22:18:00Z,27.6346,-97.2370,0.996,1111122 
TCOON,ioos:station:TCOON:005:1,2017-01-08T23:18:00Z,27.6346,-97.2370,1.018,1111122 
TCOON,ioos:station:TCOON:005:1,2017-01-09T00:18:00Z,27.6346,-97.2370,1.039,1111122 
TCOON,ioos:station:TCOON:005:1,2017-01-09T01:18:00Z,27.6346,-97.2370,1.054,1111122 
TCOON,ioos:station:TCOON:005:1,2017-01-09T02:18:00Z,27.6346,-97.2370,1.071,1111122 
TCOON,ioos:station:TCOON:005:1,2017-01-09T03:18:00Z,27.6346,-97.2370,1.089,1111122 
TCOON,ioos:station:TCOON:005:1,2017-01-09T04:18:00Z,27.6346,-97.2370,1.107,1111122 
TCOON,ioos:station:TCOON:005:1,2017-01-09T05:18:00Z,27.6346,-97.2370,1.125,1111122 
TCOON,ioos:station:TCOON:005:1,2017-01-09T06:18:00Z,27.6346,-97.2370,1.141,1111122 
TCOON,ioos:station:TCOON:005:1,2017-01-09T07:18:00Z,27.6346,-97.2370,1.148,1111122 
TCOON,ioos:station:TCOON:005:1,2017-01-09T08:18:00Z,27.6346,-97.2370,1.148,1111122 
TCOON,ioos:station:TCOON:005:1,2017-01-09T09:18:00Z,27.6346,-97.2370,1.148,1111122 
TCOON,ioos:station:TCOON:005:1,2017-01-09T10:18:00Z,27.6346,-97.2370,1.138,1111122 
TCOON,ioos:station:TCOON:005:1,2017-01-09T11:18:00Z,27.6346,-97.2370,1.121,1111122 
TCOON,ioos:station:TCOON:005:1,2017-01-09T12:18:00Z,27.6346,-97.2370,1.102,1111122 
TCOON,ioos:station:TCOON:005:1,2017-01-09T13:18:00Z,27.6346,-97.2370,1.087,1111122 
TCOON,ioos:station:TCOON:005:1,2017-01-09T14:18:00Z,27.6346,-97.2370,1.079,1111122 
TCOON,ioos:station:TCOON:005:1,2017-01-09T15:18:00Z,27.6346,-97.2370,1.066,1111122 
TCOON,ioos:station:TCOON:005:1,2017-01-09T16:18:00Z,27.6346,-97.2370,1.034,1111122 
TCOON,ioos:station:TCOON:005:1,2017-01-09T17:18:00Z,27.6346,-97.2370,1.046,1111122 
TCOON,ioos:station:TCOON:005:1,2017-01-09T18:18:00Z,27.6346,-97.2370,1.052,1111122 
TCOON,ioos:station:TCOON:005:1,2017-01-09T19:18:00Z,27.6346,-97.2370,1.058,1111122 
TCOON,ioos:station:TCOON:005:1,2017-01-09T20:18:00Z,27.6346,-97.2370,1.066,1111122 
TCOON,ioos:station:TCOON:005:1,2017-01-09T21:18:00Z,27.6346,-97.2370,1.079,1111122 
TCOON,ioos:station:TCOON:005:1,2017-01-09T22:18:00Z,27.6346,-97.2370,1.09,1111122 
TCOON,ioos:station:TCOON:005:1,2017-01-09T23:18:00Z,27.6346,-97.2370,1.107,1111122 
TCOON,ioos:station:TCOON:005:1,2017-01-10T00:18:00Z,27.6346,-97.2370,1.118,1111122 
TCOON,ioos:station:TCOON:005:1,2017-01-10T01:18:00Z,27.6346,-97.2370,1.124,1111122 
TCOON,ioos:station:TCOON:005:1,2017-01-10T02:18:00Z,27.6346,-97.2370,1.126,1111122 
TCOON,ioos:station:TCOON:005:1,2017-01-10T03:18:00Z,27.6346,-97.2370,1.129,1111122 
TCOON,ioos:station:TCOON:005:1,2017-01-10T04:24:00Z,27.6346,-97.2370,1.14,1111122 
TCOON,ioos:station:TCOON:005:1,2017-01-10T05:18:00Z,27.6346,-97.2370,1.147,1111122 
TCOON,ioos:station:TCOON:005:1,2017-01-10T06:18:00Z,27.6346,-97.2370,1.156,1111122 
TCOON,ioos:station:TCOON:005:1,2017-01-10T07:18:00Z,27.6346,-97.2370,1.176,1111122 
TCOON,ioos:station:TCOON:005:1,2017-01-10T08:18:00Z,27.6346,-97.2370,1.171,1111122 
TCOON,ioos:station:TCOON:005:1,2017-01-10T09:18:00Z,27.6346,-97.2370,1.156,1111122 
TCOON,ioos:station:TCOON:005:1,2017-01-10T10:18:00Z,27.6346,-97.2370,1.14,1111122 
TCOON,ioos:station:TCOON:005:1,2017-01-10T11:18:00Z,27.6346,-97.2370,1.112,1111122 
TCOON,ioos:station:TCOON:005:1,2017-01-10T12:18:00Z,27.6346,-97.2370,1.093,1111122 
TCOON,ioos:station:TCOON:005:1,2017-01-10T13:18:00Z,27.6346,-97.2370,1.071,1111122 
TCOON,ioos:station:TCOON:005:1,2017-01-10T14:18:00Z,27.6346,-97.2370,1.059,1111122 
TCOON,ioos:station:TCOON:005:1,2017-01-10T15:18:00Z,27.6346,-97.2370,1.053,1111122 
TCOON,ioos:station:TCOON:005:1,2017-01-10T16:18:00Z,27.6346,-97.2370,1.028,1111122 
TCOON,ioos:station:TCOON:005:1,2017-01-10T17:18:00Z,27.6346,-97.2370,1.03,1111122 
TCOON,ioos:station:TCOON:005:1,2017-01-10T18:18:00Z,27.6346,-97.2370,1.039,1111122 
TCOON,ioos:station:TCOON:005:1,2017-01-10T19:18:00Z,27.6346,-97.2370,1.039,1111122 
TCOON,ioos:station:TCOON:005:1,2017-01-10T20:18:00Z,27.6346,-97.2370,1.045,1111122 
TCOON,ioos:station:TCOON:005:1,2017-01-10T21:18:00Z,27.6346,-97.2370,1.057,1111122 
TCOON,ioos:station:TCOON:005:1,2017-01-10T22:18:00Z,27.6346,-97.2370,1.064,1111122 
TCOON,ioos:station:TCOON:005:1,2017-01-10T23:18:00Z,27.6346,-97.2370,1.077,1111122 
TCOON,ioos:station:TCOON:005:1,2017-01-11T00:18:00Z,27.6346,-97.2370,1.093,1111122 
TCOON,ioos:station:TCOON:005:1,2017-01-11T01:18:00Z,27.6346,-97.2370,1.109,1111122 
TCOON,ioos:station:TCOON:005:1,2017-01-11T02:18:00Z,27.6346,-97.2370,1.123,1111122 
TCOON,ioos:station:TCOON:005:1,2017-01-11T03:18:00Z,27.6346,-97.2370,1.137,1111122 
TCOON,ioos:station:TCOON:005:1,2017-01-11T04:18:00Z,27.6346,-97.2370,1.159,1111122 
TCOON,ioos:station:TCOON:005:1,2017-01-11T05:18:00Z,27.6346,-97.2370,1.161,1111122 
TCOON,ioos:station:TCOON:005:1,2017-01-11T06:18:00Z,27.6346,-97.2370,1.155,1111122 
TCOON,ioos:station:TCOON:005:1,2017-01-11T07:18:00Z,27.6346,-97.2370,1.146,1111122 
TCOON,ioos:station:TCOON:005:1,2017-01-11T08:18:00Z,27.6346,-97.2370,1.145,1111122 
TCOON,ioos:station:TCOON:005:1,2017-01-11T09:18:00Z,27.6346,-97.2370,1.132,1111122 
TCOON,ioos:station:TCOON:005:1,2017-01-11T10:18:00Z,27.6346,-97.2370,1.124,1111122 
TCOON,ioos:station:TCOON:005:1,2017-01-11T11:18:00Z,27.6346,-97.2370,1.114,1111122 
TCOON,ioos:station:TCOON:005:1,2017-01-11T12:18:00Z,27.6346,-97.2370,1.101,1111122 
TCOON,ioos:station:TCOON:005:1,2017-01-11T13:18:00Z,27.6346,-97.2370,1.088,1111122 
TCOON,ioos:station:TCOON:005:1,2017-01-11T14:18:00Z,27.6346,-97.2370,1.07,1111122 
TCOON,ioos:station:TCOON:005:1,2017-01-11T15:18:00Z,27.6346,-97.2370,1.048,1111122 
TCOON,ioos:station:TCOON:005:1,2017-01-11T16:18:00Z,27.6346,-97.2370,1.018,1111122 
TCOON,ioos:station:TCOON:005:1,2017-01-11T17:18:00Z,27.6346,-97.2370,0.99,1111122 
TCOON,ioos:station:TCOON:005:1,2017-01-11T18:18:00Z,27.6346,-97.2370,0.99,1111122 
TCOON,ioos:station:TCOON:005:1,2017-01-11T19:18:00Z,27.6346,-97.2370,0.998,1111122 
TCOON,ioos:station:TCOON:005:1,2017-01-11T20:18:00Z,27.6346,-97.2370,1.005,1111122 
TCOON,ioos:station:TCOON:005:1,2017-01-11T21:18:00Z,27.6346,-97.2370,1.014,1111122 
TCOON,ioos:station:TCOON:005:1,2017-01-11T22:18:00Z,27.6346,-97.2370,1.021,1111122 
TCOON,ioos:station:TCOON:005:1,2017-01-11T23:18:00Z,27.6346,-97.2370,1.034,1111122 
TCOON,ioos:station:TCOON:005:1,2017-01-12T00:18:00Z,27.6346,-97.2370,1.049,1111122 
TCOON,ioos:station:TCOON:005:1,2017-01-12T01:18:00Z,27.6346,-97.2370,1.066,1111122 
TCOON,ioos:station:TCOON:005:1,2017-01-12T02:18:00Z,27.6346,-97.2370,1.08,1111122 
TCOON,ioos:station:TCOON:005:1,2017-01-12T03:18:00Z,27.6346,-97.2370,1.089,1111122 
TCOON,ioos:station:TCOON:005:1,2017-01-12T04:18:00Z,27.6346,-97.2370,1.097,1111122 
TCOON,ioos:station:TCOON:005:1,2017-01-12T05:18:00Z,27.6346,-97.2370,1.116,1111122 
TCOON,ioos:station:TCOON:005:1,2017-01-12T06:18:00Z,27.6346,-97.2370,1.117,1111122 
TCOON,ioos:station:TCOON:005:1,2017-01-12T07:18:00Z,27.6346,-97.2370,1.122,1111122 
TCOON,ioos:station:TCOON:005:1,2017-01-12T08:18:00Z,27.6346,-97.2370,1.123,1111122 
TCOON,ioos:station:TCOON:005:1,2017-01-12T09:18:00Z,27.6346,-97.2370,1.112,1111122 
TCOON,ioos:station:TCOON:005:1,2017-01-12T10:18:00Z,27.6346,-97.2370,1.115,1111122 
TCOON,ioos:station:TCOON:005:1,2017-01-12T11:18:00Z,27.6346,-97.2370,1.129,1111122 
TCOON,ioos:station:TCOON:005:1,2017-01-12T12:18:00Z,27.6346,-97.2370,1.126,1111122 
TCOON,ioos:station:TCOON:005:1,2017-01-12T13:18:00Z,27.6346,-97.2370,1.107,1111122 
TCOON,ioos:station:TCOON:005:1,2017-01-12T14:18:00Z,27.6346,-97.2370,1.078,1111122 
TCOON,ioos:station:TCOON:005:1,2017-01-12T15:18:00Z,27.6346,-97.2370,1.053,1111122 
TCOON,ioos:station:TCOON:005:1,2017-01-12T16:18:00Z,27.6346,-97.2370,1.03,1111122 
TCOON,ioos:station:TCOON:005:1,2017-01-12T17:18:00Z,27.6346,-97.2370,1.013,1111122 
TCOON,ioos:station:TCOON:005:1,2017-01-12T18:18:00Z,27.6346,-97.2370,1.006,1111122 
TCOON,ioos:station:TCOON:005:1,2017-01-12T19:18:00Z,27.6346,-97.2370,1.002,1111122 
TCOON,ioos:station:TCOON:005:1,2017-01-12T20:18:00Z,27.6346,-97.2370,1.002,1111122 
TCOON,ioos:station:TCOON:005:1,2017-01-12T21:18:00Z,27.6346,-97.2370,1.005,1111122 
TCOON,ioos:station:TCOON:005:1,2017-01-12T22:18:00Z,27.6346,-97.2370,1.008,1111122 
TCOON,ioos:station:TCOON:005:1,2017-01-12T23:18:00Z,27.6346,-97.2370,1.018,1111122 
TCOON,ioos:station:TCOON:005:1,2017-01-13T00:18:00Z,27.6346,-97.2370,1.036,1111122 